EW5673 Weather Reports


time (UTC)temp
C
wind
direction
speed
KPH
gust
KPH
rain 1hr
cm
rain 24hr
cm
rain mn
cm
humidity
%
barometer
mb
20190418171626 21 74 4.8 16.1 0.00 0.00 0.00 35 1021.8
20190418170156 21 86 3.2 9.7 0.00 0.00 0.00 35 1021.8
20190418164626 21 63 3.2 14.5 0.00 0.00 0.00 35 1021.7
20190418163153 22 137 6.4 20.9 0.00 0.00 0.00 35 1021.7
20190418161631 22 63 8.0 16.1 0.00 0.00 0.00 35 1021.7
20190418160128 22 9 3.2 16.1 0.00 0.00 0.00 36 1021.7
20190418154856 22 90 6.4 19.3 0.00 0.00 0.00 34 1021.7
20190418153141 22 5 3.2 16.1 0.00 0.00 0.00 36 1021.8
20190418151617 22 57 4.8 17.7 0.00 0.00 0.00 34 1021.7
20190418150208 22 57 4.8 17.7 0.00 0.00 0.00 34 1021.9
20190418144619 22 96 8.0 17.7 0.00 0.00 0.00 33 1021.9
20190418143108 22 69 6.4 19.3 0.00 0.00 0.00 35 1021.9
20190418141618 22 119 3.2 14.5 0.00 0.00 0.00 35 1021.9
20190418140143 22 67 4.8 16.1 0.00 0.00 0.00 33 1022.0
20190418134629 22 42 4.8 16.1 0.00 0.00 0.00 34 1022.0
20190418133134 22 340 4.8 19.3 0.00 0.00 0.00 33 1022.1
20190418131618 21 88 11.3 24.1 0.00 0.00 0.00 33 1022.1
20190418130105 21 57 11.3 20.9 0.00 0.00 0.00 31 1022.1
20190418124622 21 79 9.7 20.9 0.00 0.00 0.00 32 1022.1
20190418123059 21 28 3.2 20.9 0.00 0.00 0.00 35 1022.2
20190418121602 21 74 9.7 24.1 0.00 0.00 0.00 32 1022.2
20190418120116 21 78 6.4 27.4 0.00 0.00 0.00 35 1022.2
20190418114535 21 44 6.4 20.9 0.00 0.00 0.00 34 1022.2
20190418113036 21 95 8.0 22.5 0.00 0.00 0.00 34 1022.4
20190418111535 21 69 4.8 16.1 0.00 0.00 0.00 34 1022.5
20190418110036 21 36 4.8 16.1 0.00 0.00 0.00 38 1022.5
20190418104529 21 38 3.2 12.9 0.00 0.00 0.00 39 1022.6
20190418103019 20 112 3.2 11.3 0.00 0.00 0.00 38 1022.8
20190418101533 20 63 6.4 17.7 0.00 0.00 0.00 40 1022.9
20190418100013 20 86 1.6 14.5 0.00 0.00 0.00 45 1023.0
20190418094505 19 59 3.2 8.0 0.00 0.00 0.00 45 1023.2
20190418093234 18 83 4.8 11.3 0.00 0.00 0.00 45 1023.1
20190418091946 18 30 3.2 12.9 0.00 0.00 0.00 47 1023.2
20190418090139 17 78 1.6 9.7 0.00 0.00 0.00 50 1023.1
20190418084658 16 63 3.2 11.3 0.00 0.00 0.00 52 1023.2
20190418083222 16 69 3.2 11.3 0.00 0.00 0.00 53 1023.1
20190418081712 16 77 3.2 8.0 0.00 0.00 0.00 55 1023.1
20190418080145 15 85 1.6 6.4 0.00 0.00 0.00 57 1023.1
20190418074623 15 67 3.2 11.3 0.00 0.00 0.00 58 1023.0
20190418073047 14 67 4.8 12.9 0.00 0.00 0.00 60 1023.0
20190418071629 13 66 0.0 11.3 0.00 0.00 0.00 63 1022.8
20190418070036 13 73 0.0 6.4 0.00 0.00 0.00 66 1022.8
20190418064548 12 69 1.6 12.9 0.00 0.00 0.00 67 1022.7
20190418063111 12 77 1.6 9.7 0.00 0.00 0.00 70 1022.6
20190418061541 11 54 3.2 9.7 0.00 0.00 0.00 73 1022.5
20190418060035 10 77 1.6 9.7 0.00 0.00 0.00 77 1022.3
20190418054529 9 92 0.0 6.4 0.00 0.00 0.00 81 1022.2
20190418053022 8 69 0.0 3.2 0.00 0.00 0.00 83 1022.1
20190418051523 8 69 0.0 3.2 0.00 0.00 0.00 84 1021.9
20190418050033 8 69 0.0 0.0 0.00 0.00 0.00 83 1021.9
20190418044512 8 69 0.0 3.2 0.00 0.00 0.00 84 1021.9
20190418043019 8 70 0.0 1.6 0.00 0.00 0.00 85 1021.8
20190418041510 8 69 0.0 1.6 0.00 0.00 0.00 85 1021.6
20190418040010 8 70 0.0 1.6 0.00 0.00 0.00 85 1021.6
20190418034533 8 70 0.0 1.6 0.00 0.00 0.00 87 1021.6
20190418033016 8 70 0.0 1.6 0.00 0.00 0.00 88 1021.6
20190418031644 9 70 0.0 3.2 0.00 0.00 0.00 88 1021.7
20190418030209 9 71 0.0 1.6 0.00 0.00 0.00 87 1021.8
20190418024818 10 72 0.0 1.6 0.00 0.00 0.00 88 1021.8
20190418023139 10 76 0.0 3.2 0.00 0.00 0.00 87 1021.8
20190418021637 10 95 0.0 3.2 0.00 0.00 0.00 85 1021.9
20190418020149 10 97 0.0 3.2 0.00 0.00 0.00 84 1021.8
20190418014619 11 87 0.0 3.2 0.00 0.00 0.00 84 1021.8
20190418013139 11 100 0.0 4.8 0.00 0.00 0.00 84 1021.8
20190418011633 11 97 1.6 4.8 0.00 0.00 0.00 85 1021.8
20190418010154 11 69 0.0 4.8 0.00 0.00 0.00 85 1021.7
20190418004747 11 105 1.6 4.8 0.00 0.00 0.00 85 1021.7
20190418003134 11 68 0.0 3.2 0.00 0.00 0.00 85 1021.7
20190418001611 11 78 1.6 4.8 0.00 0.00 0.00 85 1021.8
20190418000128 11 60 0.0 3.2 0.00 0.00 0.00 84 1021.9
20190417234624 11 82 0.0 4.8 0.00 0.00 0.00 85 1021.8
20190417233058 11 61 0.0 3.2 0.00 0.00 0.00 85 1021.8
20190417231637 11 355 0.0 3.2 0.00 0.00 0.00 85 1021.8
20190417230125 11 5 0.0 4.8 0.00 0.00 0.00 87 1021.8
20190417224719 11 9 1.6 4.8 0.00 0.00 0.00 88 1021.8
20190417223109 10 69 0.0 3.2 0.00 0.00 0.00 88 1021.9
20190417221630 10 74 1.6 3.2 0.00 0.00 0.00 88 1021.9
20190417220121 10 76 0.0 1.6 0.00 0.00 0.00 86 1021.8
20190417214551 11 76 0.0 1.6 0.00 0.00 0.00 85 1021.8
20190417213110 11 78 0.0 1.6 0.00 0.00 0.00 85 1021.7
20190417211648 11 78 0.0 1.6 0.00 0.00 0.00 84 1021.7
20190417210043 11 78 0.0 1.6 0.00 0.00 0.00 82 1021.8
20190417204542 12 78 0.0 1.6 0.00 0.00 0.00 80 1021.8
20190417203112 12 78 0.0 3.2 0.00 0.00 0.00 79 1021.7
20190417201545 12 87 0.0 4.8 0.00 0.00 0.00 78 1021.5
20190417200028 13 76 0.0 4.8 0.00 0.00 0.00 76 1021.4
20190417194559 13 79 0.0 6.4 0.00 0.00 0.00 73 1021.4
20190417193040 13 89 1.6 6.4 0.00 0.00 0.00 72 1021.3
20190417191535 13 77 0.0 3.2 0.00 0.00 0.00 70 1021.1
20190417190102 14 80 0.0 4.8 0.00 0.00 0.00 68 1020.9
20190417184555 14 82 0.0 4.8 0.00 0.00 0.00 69 1020.7
20190417183037 14 82 0.0 3.2 0.00 0.00 0.00 69 1020.6
20190417181541 15 109 1.6 4.8 0.00 0.00 0.00 68 1020.6
20190417180058 15 180 0.0 3.2 0.00 0.00 0.00 68 1020.5
20190417174550 15 111 1.6 4.8 0.00 0.00 0.00 68 1020.6
20190417173041 15 155 0.0 3.2 0.00 0.00 0.00 68 1020.6